Regional Weather Roundup
Issued by NWS

Home | Current Version | Previous Version | Text Only | Print | Product List | Glossary On
Versions: 1 2 3 4 5 6 7 8 9 10 11 12 13 14 15 16 17 18 19 20 21 22 23 24 25 26 27 28 29 30 31 32 33 34 35 36 37 38 39 40 41 42 43 44 45 46 47 48 49 50
000
ASUS42 KTBW 281010
RWRFL
FLORIDA REGIONAL WEATHER ROUNDUP
NATIONAL WEATHER SERVICE TAMPA BAY RUSKIN FL
600 AM EDT THU AUG 28 2014

NOTE: "FAIR" INDICATES FEW OR NO CLOUDS BELOW 12,000 FEET WITH NO
SIGNIFICANT WEATHER AND/OR OBSTRUCTIONS TO VISIBILITY.


FLZ001>010-012>015-112-114-115-281100-
PANHANDLE FLORIDA

CITY           SKY/WX    TMP DP  RH WIND       PRES   REMARKS
PENSACOLA      MOCLDY    73  71  93 CALM      29.98S
PENSACOLA NAS  PTCLDY    73  72  96 N3        29.98R
MILTON NAS     PTCLDY    71  68  90 CALM      29.99R
CRESTVIEW      PTCLDY    67  65  93 CALM      30.00S
DUKE FIELD     FAIR      68  68  99 CALM      29.99R
VALPARAISO     CLEAR     74  69  86 CALM      29.99R
MARY ESTHER    PTCLDY    71  66  84 N5        29.98R
TRI COUNTY     LGT RAIN  67  66  97 CALM      30.00R
PANAMA CITY    FAIR      72  68  87 CALM      29.98R
TYNDALL AFB    PTCLDY    72  72  99 CALM      29.99S
APALACHICOLA   CLEAR     71  68  90 CALM      29.98S

STATION/POSITION SKY/WX   TEMP    WIND        PRES    WAVE   SWELL
                          AIR SEA DIR/SP/G            HT/PER HT/PER
                          (F)     (DEG/KT/KT) (MB)    (FT/S) (FT/S)
30.1N   87.6W              83 84  160/  2/  2 1015.1F   2/ 7   2/ 7
29.2N   88.2W              84 85   90/  8/ 10 1014.7S
28.8N   86.0W              85 86   90/ 10/ 12 1014.3F   2/ 5   2/ 6
PANAMA CITY BEAC           78 85  340/  4/  5 1015.1R
CAPE SAN BLAS    NOT AVBL
TOWER C                    81      20/ 12/ 13 1015.0R
28.5N   84.5W              84 86  100/ 16/ 17 1014.1R   3/ 4

$$
FLZ011-016>038-118-127-128-134-139-239-281100-
NORTH FLORIDA

CITY           SKY/WX    TMP DP  RH WIND       PRES   REMARKS
MARIANNA       CLEAR     70  68  93 CALM      29.99R
TALLAHASSEE    CLEAR     69  65  86 CALM      30.00S
PERRY          CLEAR     68  66  94 CALM      30.01R
CROSS CITY       N/A     65  63  93 CALM      30.00R
LAKE CITY      FAIR      63  63 100 CALM      30.01R FOG
GAINESVILLE    CLEAR     64  63  96 CALM      30.00S
MAYPORT NAS    PTCLDY    73  69  87 NW5       30.00R
JACKSONVILLE   CLEAR     65  64  97 CALM      30.00R
JAX NAS        CLEAR     73  65  75 CALM      30.01R
JAX CRAIG      CLEAR     70  67  90 NW3       30.00R
JAX CECIL      CLEAR     59  59 100 CALM      30.01R
FERNANDINA BEA FAIR      70  66  88 W3        30.00R
ST AUGUSTINE   CLEAR     70  68  93 CALM      30.01R

STATION/POSITION SKY/WX   TEMP    WIND        PRES    WAVE   SWELL
                          AIR SEA DIR/SP/G            HT/PER HT/PER
                          (F)     (DEG/KT/KT) (MB)    (FT/S) (FT/S)
SHELL POINT                77      20/  2/  3   N/A
KEATON BEACH               72      80/  4/  5 1015.8R
CEDAR KEY                  79      80/  6/  7 1015.9R
FERNANDINA                 72 83  280/  3/  4 1015.5R
30.7N   81.3W                 83                N/A     3/11   2/11
MAYPORT                    72 83  320/  7/  8   N/A
31.4N   80.9W              81 84  140/  6/  8 1015.9R   4/10   3/10
ST AUGUSTINE               72     280/  5/  6 1016.4R

$$
FLZ040-043>046-052-053-057-058-063-144-281100-
INTERIOR CENTRAL FLORIDA

CITY           SKY/WX    TMP DP  RH WIND       PRES   REMARKS
OCALA          CLEAR     66  64  94 CALM      30.00S
LEESBURG       CLEAR     73  70  90 CALM      30.00S
SANFORD        CLEAR     74  70  87 CALM      29.99S
ORLANDO EXEC   CLEAR     77  71  82 NE3       29.99S
ORLANDO INTL   PTCLDY    74  71  91 N6        29.99S
WINTER HAVEN   CLEAR     74  72  93 CALM      30.00R
LAKELAND       MOCLDY    75  75 100 CALM      30.00R
BARTOW         FAIR      73 N/A N/A NE5       30.00R
OKEECHOBEE       N/A     72  72 100 MISG      29.98

$$
FLZ041-047-054-059-064-141-147-281100-
EAST CENTRAL FLORIDA

CITY           SKY/WX    TMP DP  RH WIND       PRES   REMARKS
DAYTONA BEACH  PTCLDY    73  69  87 CALM      29.99S
DELAND         SUNNY     70  68  94 CALM      30.00F
JFK SPACE CTR  CLEAR     74  73  95 NW2       29.98S
CAPE CANAVERAL CLEAR     72  71  95 CALM      29.98R
PATRICK AFB    CLEAR     79  76  91 CALM      29.98S
MELBOURNE      CLEAR     74  72  93 W3        29.98R
VERO BEACH     CLEAR     72  70  93 CALM      29.97R
FT PIERCE      CLEAR     72  69  90 CALM      29.97R
STUART         CLEAR     73  72  94 CALM      29.98R

STATION/POSITION SKY/WX   TEMP    WIND        PRES    WAVE   SWELL
                          AIR SEA DIR/SP/G            HT/PER HT/PER
                          (F)     (DEG/KT/KT) (MB)    (FT/S) (FT/S)
28.5N   80.2W              82 82  130/  2/  4 1015.2F
28.9N   78.5W              82 83  170/  6/  8 1015.3R   7/10   7/10
TRIDENT PIER               74 83   10/  2/  2 1014.7R
28.4N   80.5W                 82                N/A     4/11   2/11
27.6N   80.2W                 83                N/A     6/10   3/11

$$
FLZ050-056-061-142-242-148-248-149-249-151-251-155-255-
160-260-281100-
WEST CENTRAL FLORIDA

CITY           SKY/WX    TMP DP  RH WIND       PRES   REMARKS
CRYSTAL RIVER  FAIR      72  68  88 CALM      29.99S
INVERNESS      CLOUDY    70  59  68 CALM      30.00S
BROOKSVILLE    MOCLDY    74  70  87 NE3       29.99F
ZEPHYRHILLS    FAIR      68  68 100 CALM      30.00R
CLEARWATER     CLEAR     79  73  82 E7        29.97S
TAMPA INTL     MOCLDY    78  71  79 E3        29.99R
TAMPA EXEC     CLEAR     75  72  88 CALM      29.99R
MACDILL AFB    CLEAR     75  75 100 E8        29.98R
ST PETERSBURG  PTCLDY    81  74  79 E10       29.96R
SARASOTA       CLEAR     75  74  96 E7        29.95S
VENICE           N/A    N/A N/A N/A MISG        N/A

STATION/POSITION SKY/WX   TEMP    WIND        PRES    WAVE   SWELL
                          AIR SEA DIR/SP/G            HT/PER HT/PER
                          (F)     (DEG/KT/KT) (MB)    (FT/S) (FT/S)
CEDAR KEY                  79      80/  6/  7 1015.9R
28.5N   84.5W              84 86  100/ 16/ 17 1014.1R   3/ 4
27.3N   84.3W                 87                N/A     3/ 4
CLEARWATER BEACH           79 86   80/  4/  6 1014.6R
MIDDLE TAMPA BAY           79      90/ 10/ 12 1015.1R
VENICE                     76 87   70/  7/  9 1014.1R

$$
FLZ066-069-070-075>078-162-262-165-265-281100-
SOUTHWEST FLORIDA AND KEYS

CITY           SKY/WX    TMP DP  RH WIND       PRES   REMARKS
PUNTA GORDA    CLOUDY    76  74  93 E3        29.98R
FT MYERS       CLEAR     75  73  93 E5        29.95R
SOUTHWEST INTL CLEAR     75  72  90 E6        29.96R
NAPLES         CLOUDY    79  74  84 E8        29.95R
MARCO ISLAND   MOSUNNY   77  75  94 NE5       29.95R
MARATHON       MOCLDY    81  80  97 S12G20    29.94S
KEY WEST NAS   PTCLDY    84  76  76 S16       29.95R
KEY WEST INTL  PTCLDY    85  76  74 S16       29.95R

STATION/POSITION SKY/WX   TEMP    WIND        PRES    WAVE   SWELL
                          AIR SEA DIR/SP/G            HT/PER HT/PER
                          (F)     (DEG/KT/KT) (MB)    (FT/S) (FT/S)
VENICE                     76 87   70/  7/  9 1014.1R
NAPLES                     79      70/  4/  6 1014.7R
DRY TORTUGAS               85     190/ 12/ 14 1013.2R
NW FL BAY                  85     180/  5/  6 1013.8F
SAND KEY                   83     180/ 16/ 19 1013.9R
SOMBRERO KEY               83     190/ 23/ 24 1014.4R
LONG KEY                   83 86  210/  7/  8 1014.6R
MOLASSES REEF              82 87  220/ 11/ 12 1014.2R

$$
FLZ067-068-071>074-168-172>174-281100-
SOUTHEAST FLORIDA

CITY           SKY/WX    TMP DP  RH WIND       PRES   REMARKS
W PALM BEACH   PTCLDY    80  73  79 CALM      29.95S
FT LAUDER-EXEC MOCLDY    83  77  82 E6        29.95S
FT LAUDERDALE  MOCLDY    84  73  69 E8        29.94S
POMPANO BEACH    N/A     84  75  74 E8        29.95S
PEMBROKE PINES LGT RAIN  80  77  90 SE6       29.97R
OPA LOCKA      CLOUDY    80  77  90 CALM      29.96R
MIAMI          MOCLDY    81  76  84 S5        29.96S
WEST KENDALL   PTCLDY    80  74  81 CALM      29.96R
HOMESTEAD      CLEAR     78  76  93 CALM      29.96R

STATION/POSITION SKY/WX   TEMP    WIND        PRES    WAVE   SWELL
                          AIR SEA DIR/SP/G            HT/PER HT/PER
                          (F)     (DEG/KT/KT) (MB)    (FT/S) (FT/S)
PORT EVERGLADES            84     130/  5/  8 1014.0
VIRGINIA KEY               83 86  200/  7/  8   N/A
LAKE WORTH                 83 87  100/  4/  6 1014.1S
FOWEY ROCKS                83 87  220/  6/  7 1014.7R
SETTLEMENT POINT           83      90/  5/  5 1015.3R

$$



USA.gov is the U.S. government's official web portal to all federal, state and local government web resources and services.